Address 0xa5288139721d958ae0bb0c384678eee407d61d8c

 
Txn Hash Method
Block
From
To
Value [Txn Fee]
0x3dff21bfb8edd314fd54b0d3e68d8e6e2d6229931d62c4457438d3454da22a8e0x41706c4e207151682021-10-28 20:07:208 mins ago0xa5288139721d958ae0bb0c384678eee407d61d8cOUT 0x86c80a8aa58e0a4fa09a69624c31ab2a6cad56b80 MATIC0.002299115
0x78f3f36759e4152b2b1ef48b1a3316c457cb2d4b82fbddb52afaad5ef3436e0bExecute Meta Tra...207144132021-10-28 19:38:4436 mins ago0xa5288139721d958ae0bb0c384678eee407d61d8cOUT 0xa102072a4c07f06ec3b4900fdc4c7b80b6c574290 MATIC0.006944752
0x79f1ddf87d5918d0ef0ecbcbeb259afc74238541a3585b2f37c514061b0f9fc4Execute Meta Tra...207139392021-10-28 19:22:2853 mins ago0xa5288139721d958ae0bb0c384678eee407d61d8cOUT 0x89aac1f5ccdd54dd8a09e5c858f19a665e4fa32b0 MATIC0.00642501
0x3ab767539a818a8348ef9ef9c84c6c039abbd7fae1cf2a6824cad7423c3e7f9c0x41706c4e207125102021-10-28 18:24:021 hr 51 mins ago0xa5288139721d958ae0bb0c384678eee407d61d8cOUT 0x86c80a8aa58e0a4fa09a69624c31ab2a6cad56b80 MATIC0.008207312
0x4b8580fd2ee63ff2a90682c1eebc387d397d6b48bfdab63f3da358ae5a616057Execute Meta Tra...207121982021-10-28 18:09:082 hrs 6 mins ago0xa5288139721d958ae0bb0c384678eee407d61d8cOUT 0x89aac1f5ccdd54dd8a09e5c858f19a665e4fa32b0 MATIC0.00642537
0x683d0711502cfb41d3be66344359a08f5dadfc0835caa234c895b6f6bee9dd95Execute Meta Tra...207118432021-10-28 17:56:542 hrs 18 mins ago0xa5288139721d958ae0bb0c384678eee407d61d8cOUT 0xeda1f66f5c765ac16b4333c53f3f83f781d01c8b0 MATIC0.05638128
0xe2fe4dace2a73569bbe695db4e5e839506a3fc18065beae952f0105be591d463Execute Meta Tra...207116192021-10-28 17:46:492 hrs 28 mins ago0xa5288139721d958ae0bb0c384678eee407d61d8cOUT 0xa5f1ea7df861952863df2e8d1312f7305dabf2150 MATIC0.00334494
0xc486904dd4609a030362957fe759c9f30a706c44e5569038ff5f5b273cad82b7Execute Meta Tra...207113382021-10-28 17:34:592 hrs 40 mins ago0xa5288139721d958ae0bb0c384678eee407d61d8cOUT 0x89aac1f5ccdd54dd8a09e5c858f19a665e4fa32b0 MATIC0.00642537
0xa4eca2b6680289f468106fff342fb33d288e460fd219e9a6bef441a389bd7279Execute Meta Tra...207107152021-10-28 17:13:333 hrs 2 mins ago0xa5288139721d958ae0bb0c384678eee407d61d8cOUT 0x89aac1f5ccdd54dd8a09e5c858f19a665e4fa32b0 MATIC0.006638805
0xb2cf93bde3b213a99cc791697e0f81c72a3786d723f9d3e2f576d3e9a04088d6Execute Meta Tra...207103582021-10-28 17:01:193 hrs 14 mins ago0xa5288139721d958ae0bb0c384678eee407d61d8cOUT 0x89aac1f5ccdd54dd8a09e5c858f19a665e4fa32b0 MATIC0.03212505
0x5fea046340c37291eb60ef759fa10e092e9cbae2bfac012c307c7412d17bd755Execute Meta Tra...207099032021-10-28 16:45:413 hrs 30 mins ago0xa5288139721d958ae0bb0c384678eee407d61d8cOUT 0xeda1f66f5c765ac16b4333c53f3f83f781d01c8b0 MATIC0.0477005
0x4226adb093a28d84c134d8660ab18a4e9a4cc44f49a1e13f7a156e4d50d4e8c8Execute Meta Tra...207095582021-10-28 16:31:393 hrs 44 mins ago0xa5288139721d958ae0bb0c384678eee407d61d8cOUT 0x89aac1f5ccdd54dd8a09e5c858f19a665e4fa32b0 MATIC0.00856668
0xfbc408e5c8c70ad709e29264137258025bcf5452bb8cc6639a24220e27c35d19Execute Meta Tra...207091792021-10-28 16:17:573 hrs 57 mins ago0xa5288139721d958ae0bb0c384678eee407d61d8cOUT 0x1fdc5e69729eecf8e933c904e86faf7a8886f6610 MATIC0.019400009292
0x85a698ebc8d65084333c15de4d48ff77c64eafd487af08ba57f501516b95d667Execute Meta Tra...207087472021-10-28 16:03:094 hrs 12 mins ago0xa5288139721d958ae0bb0c384678eee407d61d8cOUT 0x7c3a78c3c2b6b90f6a523ae76cb8c2cbba6914640 MATIC0.026774943
0x116a7ee60bb67d774271730d6d9db2c453327ae93e88ef2ab31ebc15ea259a73Execute Meta Tra...207085032021-10-28 15:52:374 hrs 23 mins ago0xa5288139721d958ae0bb0c384678eee407d61d8cOUT 0x89aac1f5ccdd54dd8a09e5c858f19a665e4fa32b0 MATIC0.006638805
0x42b0156d63b252da84df4f9542b91b8e132e096f760107831cc20604b4ca719bExecute Meta Tra...207082402021-10-28 15:43:314 hrs 32 mins ago0xa5288139721d958ae0bb0c384678eee407d61d8cOUT USD Coin0 MATIC0.00809088174
0xe0626578c7a0d14709ace0c8df55d3d0c6bbd0cfa69658b87f8169f1776b7014Execute Meta Tra...207080172021-10-28 15:35:314 hrs 40 mins ago0xa5288139721d958ae0bb0c384678eee407d61d8cOUT 0xeda1f66f5c765ac16b4333c53f3f83f781d01c8b0 MATIC0.183703
0x89fe92098cd647635df58ebd203d024829303a3bc938c91076f2fd2ce5d50acaExecute Meta Tra...207077262021-10-28 15:25:334 hrs 50 mins ago0xa5288139721d958ae0bb0c384678eee407d61d8cOUT USD Coin0 MATIC0.0157034
0xe634b2e2c566f0e180000c6518722eebcbe5d6fb1b5af042454dde9cd7490aafForward Meta Tx207074862021-10-28 15:17:174 hrs 58 mins ago0xa5288139721d958ae0bb0c384678eee407d61d8cOUT 0x0babda04f62c549a09ef3313fe187f29c099ff3c0 MATIC0.02482326
0x03464b1d586b4871800da10f874b5f97400014d0c89e40310817f89c77a4605eExecute Meta Tra...207072402021-10-28 15:08:465 hrs 6 mins ago0xa5288139721d958ae0bb0c384678eee407d61d8cOUT 0x89aac1f5ccdd54dd8a09e5c858f19a665e4fa32b0 MATIC0.0428334
0xf73b68a1b6302da22cbfb38df774d976b22342eb4d99a717999383e5b603556bForward Meta Tx207070092021-10-28 15:00:505 hrs 14 mins ago0xa5288139721d958ae0bb0c384678eee407d61d8cOUT 0x0babda04f62c549a09ef3313fe187f29c099ff3c0 MATIC0.04728
0xdc67e5fbc6478b14b8a9fece52a3c93afed161f058584ca3196825e95a7c3343Forward Meta Tx207065692021-10-28 14:43:345 hrs 32 mins ago0xa5288139721d958ae0bb0c384678eee407d61d8cOUT 0x0babda04f62c549a09ef3313fe187f29c099ff3c0 MATIC0.03782016
0xc1ee5e2acb4f16e368f629e6eabecff15d0fecc4b384f396f8192f59a4af774dExecute Meta Tra...207058832021-10-28 14:19:325 hrs 56 mins ago0xa5288139721d958ae0bb0c384678eee407d61d8cOUT 0x89aac1f5ccdd54dd8a09e5c858f19a665e4fa32b0 MATIC0.007067907
0xf0ed0d98fe8de3ec216eca3e11e6f96ececbd0b4a2541eeb234208bef2ea647fExecute Meta Tra...207056222021-10-28 14:10:346 hrs 5 mins ago0xa5288139721d958ae0bb0c384678eee407d61d8cOUT 0x89aac1f5ccdd54dd8a09e5c858f19a665e4fa32b0 MATIC0.010922517
0x764af251878cdd66acb6ad68b28e8616d552996f1c8c0863b98c250b891688b6Execute Meta Tra...207053432021-10-28 13:58:486 hrs 16 mins ago0xa5288139721d958ae0bb0c384678eee407d61d8cOUT 0x4e7a0681545e606845905ad6ba931e47bfc3a75b0 MATIC0.0072137
[ Download CSV Export 
Parent Txn Hash Block From To Value
Loading

Contract Name:
0 MATIC

Compiler Version
0

Optimization Enabled:
0 MATIC

Other Settings:
-NA-
Block Transaction Gas Used Reward
Age Block Fee Address BC Fee Address Voting Power Jailed Incoming
Block Uncle Number Difficulty Gas Used Reward
Loading
Loading
Make sure to use the "Vote Down" button for any spammy posts, and the "Vote Up" for interesting conversations.